Tracking 19831 objects as of 23-Aug-2019
HD Live streaming from Space Station
objects crossing your sky now

GP-B

Track GP-B now!
10-day predictions
GP-B is classified as:


NORAD ID: 28230
Int'l Code: 2004-014A
Perigee: 638.8 km
Apogee: 642.4 km
Inclination: 89.8 °
Period: 97.4 minutes
Semi major axis: 7011 km
RCS: 10.7347 m2 (large)
Launch date: April 20, 2004
Source: United States (US)
Launch site: AIR FORCE WESTERN TEST RANGE (AFWTR)
aabbcc
Your satellite tracking list
Your tracking list is empty




NASA's NSSDC Master Catalog

Two Line Element Set (TLE):
1 28230U 04014A   19235.38312669  .00000058  00000-0  57178-5 0  9998
2 28230  89.8209 105.4737 0002526 104.4202 255.7301 14.78690496826898
Source of the keplerian elements: AFSPC